Location: Unspecified
(52.4292°N, 19.3359°E)
Time: 16:23:26
(UTC+01:00)

A-11 Canister half - Pass Details

Date: 21 October 2025
Orbit: 1526 x 1682 km, 47.3° (Epoch: 13 November)

Event Time Altitude Azimuth Distance (km) Brightness Sun altitude
Exits shadow 01:16:24 15° 91° (E) 3,313 10.8 -47.1°
Drops below altitude 10° 01:17:56 10° 84° (E) 3,697 11.1 -47.0°
Sets 01:21:24 0° 75° (ENE) 4,681 11.9 -46.9°
